This demonstration page uses our WeatherBlox Daily Observations layout. Learn more.

39.01783, -85.05884

Hourly Observations for August 19, 2020

Temp ( °F °C ) Dew Point ( °F °C ) Humidity (%) Winds ( mph kmh ) Pressure ( in mb ) Visibility ( mi km ) Precip ( " mm )
12:52 am 00:52 Mostly Cloudy 68 20 60 15.6 76 76 NNE 9 15 29.98 1015 10 16.0934 0 0
1:52 am 01:52 Cloudy 67 19.4 59 15 76 76 ENE 9 15 29.98 1015 10 16.0934 0 0
2:52 am 02:52 Mostly Cloudy 66 18.9 56 13.3 70 70 ENE 9 15 29.98 1015 10 16.0934 0 0
3:52 am 03:52 Mostly Cloudy 65 18.3 54 12.2 68 68 NE 7 11 29.98 1015 10 16.0934 0 0
4:52 am 04:52 Mostly Clear 63 17.2 53 11.7 70 70 NE 7 11 29.97 1015 10 16.0934 0 0
5:52 am 05:52 Mostly Clear 61 16.1 53 11.7 75 75 N 7 11 29.98 1015 10 16.0934 0 0
6:52 am 06:52 Partly Cloudy 62 16.7 53 11.7 73 73 NE 7 11 30 1016 10 16.0934 0 0
7:52 am 07:52 Partly Cloudy 62 16.7 53 11.7 73 73 NNE 9 15 30.02 1017 10 16.0934 0 0
8:52 am 08:52 Mostly Sunny 65 18.3 53 11.7 66 66 NE 10 17 30.04 1017 10 16.0934 0 0
9:52 am 09:52 Sunny 69 20.6 55 12.8 61 61 ENE 15 24 30.04 1017 10 16.0934 0 0
10:52 am 10:52 Sunny 72 22.2 54 12.2 53 53 NE 15 24 30.04 1017 10 16.0934 0 0
11:52 am 11:52 Mostly Sunny 74 23.3 54 12.2 50 50 ENE 12 19 30.04 1017 10 16.0934 0 0
12:52 pm 12:52 Mostly Sunny 75 23.9 54 12.2 48 48 ENE 14 22 30.03 1017 10 16.0934 0 0
1:52 pm 13:52 Mostly Sunny 76 24.4 54 12.2 47 47 E 12 19 30.03 1017 10 16.0934 0 0
2:52 pm 14:52 Mostly Sunny 78 25.6 54 12.2 43 43 ENE 12 19 30.02 1017 10 16.0934 0 0
3:52 pm 15:52 Mostly Sunny 78 25.6 52 11.1 40 40 ENE 13 20 30 1016 10 16.0934 0 0
4:52 pm 16:52 Mostly Sunny 79 26.1 51 10.6 38 38 NNE 14 22 29.98 1015 10 16.0934 0 0
5:52 pm 17:52 Mostly Sunny 78 25.6 52 11.1 40 40 ENE 12 19 29.99 1016 10 16.0934 0 0
6:52 pm 18:52 Mostly Sunny 77 25 51 10.6 40 40 ENE 12 19 29.98 1015 10 16.0934 0 0
7:52 pm 19:52 Mostly Sunny 73 22.8 53 11.7 50 50 E 9 15 29.99 1016 10 16.0934 0 0
8:52 pm 20:52 Mostly Clear 70 21.1 53 11.7 55 55 ENE 8 13 30.01 1016 10 16.0934 0 0
9:52 pm 21:52 Clear 72 22.2 53 11.7 52 52 NE 7 11 30.02 1017 10 16.0934 0 0
10:52 pm 22:52 Clear 70 21.1 54 12.2 57 57 ENE 5 7 30.02 1017 10 16.0934 0 0
11:52 pm 23:52 Clear 68 20 54 12.2 61 61 ENE 9 15 30.03 1017 10 16.0934 0 0

Powered by AerisWeather